Weather History for Asheville, NC

Change the Weather History Date:

Saturday, July 15, 2006

  Actual Average Record
Temperature  
Mean Temperature 75 °F 74 °F  
Max Temperature 84 °F 84 °F 95 °F (1988)
Min Temperature 66 °F 64 °F 51 °F (1903)
Degree Days  
Heating Degree Days 0 0  
Month to date heating degree days 0  
Since 1 June heating degree days 14  
Since 1 July heating degree days 0  
Cooling Degree Days 10 9  
Month to date cooling degree days 131  
Year to date cooling degree days 366  
Since 1 June cooling degree days 308  
Growing Degree Days 25 (Base 50)    
Moisture  
Dew Point 67 °F    
Average Humidity 87    
Maximum Humidity 100    
Minimum Humidity 63    
Precipitation  
Precipitation 0.59 in 0.14 in 1.63 in (1976)
Month to date precipitation 2.10  
Year to date precipitation 25.00  
Snow  
Snow 0.00 in 0.00 in 0.00 in ()
Month to date snowfall 0.0  
Since 1 June snowfall 0.0  
Since 1 July snowfall 0.0  
Snow Depth -    
Sea Level Pressure  
Sea Level Pressure 30.11 in    
Wind  
Wind Speed 3 mph (NNW)    
Max Wind Speed 22 mph    
Max Gust Speed 43 mph    
Visibility 5 miles    
Events Fog , Rain , Thunderstorm    
T = Trace of Precipitation, MM = Missing Value Source: NWS Daily Summary

Daily Weather History Graph

Daily Weather History Graph

Search for Another Location

Airport:

Trip Planner

Search our weather history database for the weather conditions in past years. The results will help you decide how hot, cold, wet, or windy it might be!

Date:

Astronomy

Jul. 15, 2006 Rise Set
Actual Time 6:26 AM EDT 8:45 PM EDT
Civil Twilight 5:57 AM EDT 9:14 PM EDT
Nautical Twilight 5:21 AM EDT 9:50 PM EDT
Astronomical Twilight 4:42 AM EDT 10:29 PM EDT
Moon 11:59 PM EDT (7/15) 11:29 AM EDT (7/15)
Length of Visible Light 15h 17m
Length of Day
14h 19m
Waning Gibbous, 74% of the Moon is Illuminated
Jul 15
Waning Gibbous
Jul 17
Last Quarter
Jul 25
New
Aug 2
First Quarter
Aug 9
Full

Hourly Weather History & Observations

Time (EDT) Temp. Heat Index Dew Point Humidity Pressure Visibility Wind Dir Wind Speed Gust Speed Precip Events Conditions
12:54 AM 69.1 °F - 66.9 °F 93% 30.09 in 6.0 mi Calm Calm - N/A   Overcast
1:04 AM 69.8 °F - 66.2 °F 88% 30.16 in 4.0 mi Calm Calm - N/A   Overcast
1:54 AM 69.1 °F - 66.9 °F 93% 30.09 in 2.5 mi Calm Calm - 0.00 in   Overcast
2:01 AM 69.8 °F - 66.2 °F 88% 30.16 in 4.0 mi Calm Calm - N/A   Overcast
2:40 AM 69.8 °F - 66.2 °F 88% 30.16 in 2.5 mi NW 4.6 mph - N/A   Overcast
2:54 AM 68.0 °F - 66.9 °F 96% 30.08 in 1.8 mi WNW 3.5 mph - N/A   Overcast
3:02 AM 68.0 °F - 66.2 °F 94% 30.15 in 2.0 mi Calm Calm - N/A   Overcast
3:10 AM 68.0 °F - 66.2 °F 94% 30.16 in 1.8 mi Calm Calm - N/A   Overcast
3:17 AM 68.0 °F - 66.2 °F 94% 30.16 in 0.8 mi Calm Calm - N/A   Overcast
3:33 AM 68.0 °F - 66.2 °F 94% 30.15 in 1.5 mi Calm Calm - N/A   Overcast
3:41 AM 68.0 °F - 66.2 °F 94% 30.14 in 2.0 mi NW 3.5 mph - N/A   Overcast
3:54 AM 68.0 °F - 66.9 °F 96% 30.07 in 1.8 mi Calm Calm - N/A   Overcast
4:03 AM 68.0 °F - 66.2 °F 94% 30.13 in 1.0 mi Calm Calm - N/A   Overcast
4:20 AM 68.0 °F - 66.2 °F 94% 30.13 in 1.5 mi Calm Calm - N/A   Overcast
4:27 AM 68.0 °F - 66.2 °F 94% 30.14 in 1.0 mi Calm Calm - N/A   Overcast
4:40 AM 68.0 °F - 66.2 °F 94% 30.14 in 0.5 mi Calm Calm - N/A Fog Fog
4:54 AM 68.0 °F - 66.9 °F 96% 30.06 in 0.5 mi Calm Calm - N/A Fog Fog
5:26 AM 66.2 °F - 66.2 °F 100% 30.15 in 0.2 mi NNW 6.9 mph - N/A Fog Fog
5:33 AM 66.2 °F - 66.2 °F 100% 30.15 in 0.5 mi North 5.8 mph - N/A Fog Fog
5:54 AM 66.9 °F - 66.0 °F 97% 30.07 in 1.8 mi North 5.8 mph - N/A   Overcast
6:00 AM 66.2 °F - 66.2 °F 100% 30.15 in 3.0 mi NNW 6.9 mph - N/A   Overcast
6:08 AM 66.2 °F - 66.2 °F 100% 30.15 in 0.5 mi North 4.6 mph - N/A Fog Fog
6:54 AM 66.9 °F - 66.0 °F 97% 30.09 in 0.5 mi North 6.9 mph - N/A Fog Fog
7:54 AM 68.0 °F - 66.0 °F 93% 30.10 in 0.5 mi NNW 6.9 mph - N/A Fog Fog
8:20 AM 68.0 °F - 66.2 °F 94% 30.17 in 3.0 mi North 10.4 mph - N/A   Overcast
8:28 AM 68.0 °F - 66.2 °F 94% 30.17 in 2.5 mi North 10.4 mph - N/A   Overcast
8:46 AM 69.8 °F - 66.2 °F 88% 30.17 in 2.5 mi NNW 9.2 mph - N/A   Mostly Cloudy
8:54 AM 71.1 °F - 66.9 °F 87% 30.10 in 5.0 mi Variable 6.9 mph - N/A   Mostly Cloudy
9:10 AM 73.4 °F - 68.0 °F 83% 30.17 in 10.0 mi NNW 9.2 mph - N/A   Scattered Clouds
9:54 AM 75.0 °F - 69.1 °F 82% 30.09 in 10.0 mi Variable 4.6 mph - N/A   Clear
10:54 AM 80.1 °F 82.9 °F 69.1 °F 69% 30.09 in 10.0 mi NNW 6.9 mph - N/A   Partly Cloudy
11:54 AM 80.1 °F 82.9 °F 69.1 °F 69% 30.09 in 10.0 mi WSW 3.5 mph - N/A   Clear
12:54 PM 81.0 °F 84.1 °F 69.1 °F 67% 30.08 in 10.0 mi WNW 4.6 mph - N/A   Clear
1:54 PM 84.0 °F 89.0 °F 71.1 °F 65% 30.06 in 10.0 mi Variable 5.8 mph - N/A   Partly Cloudy
2:54 PM 84.0 °F 88.4 °F 70.0 °F 63% 30.03 in 9.0 mi Variable 4.6 mph - N/A   Mostly Cloudy
3:26 PM 75.2 °F - 68.0 °F 78% 30.17 in 1.5 mi NNW 21.9 mph 32.2 mph 0.02 in Rain Light Rain
3:33 PM 71.6 °F - 64.4 °F 78% 30.14 in 1.5 mi North 12.7 mph 42.6 mph 0.28 in Rain , Thunderstorm Heavy Thunderstorms and Rain
3:43 PM 69.8 °F - 64.4 °F 83% 30.13 in 1.5 mi Variable 3.5 mph - 0.57 in Rain , Thunderstorm Heavy Thunderstorms and Rain
3:54 PM 69.1 °F - 66.0 °F 90% 30.06 in 8.0 mi NNE 3.5 mph - 0.58 in Rain Light Rain
4:18 PM 69.8 °F - 68.0 °F 94% 30.11 in 8.0 mi Variable 4.6 mph - 0.00 in   Partly Cloudy
4:54 PM 75.9 °F - 69.1 °F 79% 30.03 in 10.0 mi NNE 3.5 mph - 0.00 in   Clear
5:54 PM 75.9 °F - 69.1 °F 79% 30.03 in 10.0 mi SSE 4.6 mph - N/A   Partly Cloudy
6:54 PM 79.0 °F - 70.0 °F 74% 30.01 in 10.0 mi SE 5.8 mph - 0.01 in   Clear
7:54 PM 78.1 °F - 69.1 °F 74% 30.03 in 10.0 mi NNW 11.5 mph - N/A   Mostly Cloudy
8:54 PM 75.9 °F - 68.0 °F 76% 30.04 in 10.0 mi NNW 8.1 mph - N/A   Overcast
10:54 PM 75.0 °F - 69.1 °F 82% 30.06 in 10.0 mi Calm Calm - N/A   Overcast
11:54 PM 73.9 °F - 69.1 °F 85% 30.07 in 10.0 mi North 5.8 mph - 0.00 in   Overcast